"2009-09-05 00:00:00",1212769,0.501,0.715,7.643,0.138,20.58,109.2749,23.03,24.06,22.84,0,111,13.18,23.86,322.7
"2009-09-05 00:00:30",1212770,0.527,9.87,11.23,0.244,20.53,109.2732,23.03,24.04,23.03,0,111,13.18,23.86,331.9
"2009-09-05 00:01:00",1212771,0.621,9.95,7.504,0.153,20.53,109.2673,23.01,24.01,22.97,0,111,13.18,23.84,332.0
"2009-09-05 00:01:30",1212772,0.337,4.322,14.16,0.137,20.57,109.2605,23,24.02,23.06,0,111,13.18,23.83,326.3
"2009-09-05 00:02:00",1212773,0.316,2.742,8.15,0.084,20.56,109.2535,22.98,24.03,23.05,0,111,13.18,23.81,324.7
"2009-09-05 00:02:30",1212774,0.469,8.1,9.95,0.169,20.53,109.2493,22.97,24.01,23.47,0,111,13.18,23.80,330.1
"2009-09-05 00:03:00",1212775,0.357,3.858,7.703,0.106,20.53,109.2485,22.96,24.02,23.29,0,111,13.18,23.80,325.9
"2009-09-05 00:03:30",1212776,0.296,3.547,9.84,0.134,20.54,109.2445,22.95,24.01,22.54,0,111,13.18,23.79,325.5
"2009-09-05 00:04:00",1212777,0.265,4.019,11.19,0.151,20.55,109.2411,22.95,23.99,22.23,0,111,13.18,23.78,326.0
"2009-09-05 00:04:30",1212778,0.43,358.9,16.51,0.276,20.57,109.2411,22.95,24,22.26,0,111,13.18,23.78,320.9
"2009-09-05 00:05:00",1212779,0.377,358.8,12.55,0.208,20.59,109.2411,22.95,23.99,22.38,0,111,13.18,23.78,320.8
"2009-09-05 00:05:30",1212780,0.422,11.37,11.23,0.234,20.53,109.2411,22.95,23.99,22.51,0,111,13.18,23.78,333.4
"2009-09-05 00:06:00",1212781,0.683,353.2,5.959,0.156,20.52,109.2411,22.95,23.99,22.53,0,111,13.18,23.78,315.2
"2009-09-05 00:06:30",1212782,0.815,351.6,8.35,0.177,20.54,109.2411,22.95,23.99,22.46,0,111,13.17,23.78,313.6
"2009-09-05 00:07:00",1212783,0.408,0.088,11.37,0.183,20.57,109.2411,22.95,23.97,22.41,0,111,13.17,23.78,322.1
"2009-09-05 00:07:30",1212784,0.397,1.418,10.83,0.175,20.57,109.2411,22.95,23.98,22.4,0,111,13.17,23.78,323.4
"2009-09-05 00:08:00",1212785,0.467,357.9,11.91,0.281,20.56,109.2411,22.95,23.96,22.32,0,111,13.17,23.78,319.9
"2009-09-05 00:08:30",1212786,0.903,349.4,4.074,0.082,20.55,109.2409,22.94,23.96,22.21,0,111,13.17,23.78,311.4
"2009-09-05 00:09:00",1212787,0.871,351.7,4.869,0.218,20.57,109.2403,22.94,23.96,22.16,0,111,13.17,23.78,313.7
"2009-09-05 00:09:30",1212788,1.038,342.1,3.671,0.085,20.53,109.2333,22.93,23.96,22.18,0,111,13.17,23.76,304.1
"2009-09-05 00:10:00",1212789,1.035,346.1,3.566,0.075,20.54,109.2268,22.91,23.95,22.21,0,111,13.17,23.74,308.1
"2009-09-05 00:10:30",1212790,1.089,343.6,2.864,0.068,20.54,109.2209,22.89,23.95,22.22,0,111,13.17,23.73,305.6
"2009-09-05 00:11:00",1212791,1.12,342.2,2.558,0.057,20.49,109.2164,22.88,23.95,22.19,0,111,13.17,23.71,304.2
"2009-09-05 00:11:30",1212792,1.162,336.5,3.194,0.037,20.45,109.213,22.87,23.94,22.14,0,111,13.17,23.70,298.5
"2009-09-05 00:12:00",1212793,1.172,335,2.619,0.069,20.46,109.2125,22.87,23.92,22.07,0,111,13.18,23.70,297.0
"2009-09-05 00:12:30",1212794,1.143,337.5,1.667,0.064,20.46,109.2083,22.86,23.92,21.99,0,111,13.18,23.69,299.5
"2009-09-05 00:13:00",1212795,1.139,337.5,1.115,0.039,20.5,109.2074,22.86,23.91,21.96,0,111,13.18,23.69,299.5
"2009-09-05 00:13:30",1212796,1.175,334,1.942,0.078,20.51,109.2074,22.86,23.91,21.98,0,111,13.18,23.69,296.0
"2009-09-05 00:14:00",1212797,1.293,331.9,2.627,0.045,20.47,109.2074,22.86,23.91,21.88,0,111,13.18,23.69,293.9
"2009-09-05 00:14:30",1212798,1.266,328.6,1.866,0.048,20.42,109.2074,22.86,23.91,21.78,0,111,13.19,23.69,290.6
"2009-09-05 00:15:00",1212799,1.203,328.7,2.021,0.039,20.52,109.2074,22.86,23.9,21.75,0,111,13.19,23.69,290.7
"2009-09-05 00:15:30",1212800,1.337,325.5,0.952,0.059,20.5,109.2074,22.86,23.9,21.73,0,111,13.18,23.69,287.5
"2009-09-05 00:16:00",1212801,1.249,325.7,1.837,0.055,20.49,109.2074,22.86,23.9,21.74,0,111,13.19,23.69,287.7
"2009-09-05 00:16:30",1212802,1.231,327,1.954,0.045,20.52,109.2074,22.86,23.91,21.75,0,111,13.19,23.69,289.0
"2009-09-05 00:17:00",1212803,1.29,325.3,1.264,0.046,20.49,109.2077,22.86,23.89,21.69,0,111,13.19,23.69,287.3
"2009-09-05 00:17:30",1212804,1.208,326.4,1.81,0.039,20.56,109.2074,22.86,23.88,21.65,0,111,13.19,23.69,288.4
"2009-09-05 00:18:00",1212805,1.13,326,1.296,0.033,20.55,109.2066,22.86,23.88,21.69,0,111,13.19,23.69,288.0
"2009-09-05 00:18:30",1212806,1.072,329.4,1.676,0.05,20.55,109.2041,22.85,23.87,21.77,0,111,13.19,23.68,291.4
"2009-09-05 00:19:00",1212807,1.04,325.4,2.86,0.059,20.54,109.1957,22.83,23.86,21.83,0,111,13.19,23.66,287.4
"2009-09-05 00:19:30",1212808,1.064,324.5,1.116,0.038,20.56,109.1912,22.82,23.87,21.82,0,111,13.19,23.65,286.5
"2009-09-05 00:20:00",1212809,0.913,326.3,2.017,0.05,20.55,109.186,22.8,23.86,21.84,0,111,13.19,23.64,288.3
"2009-09-05 00:20:30",1212810,0.924,328.9,2.492,0.038,20.55,109.1851,22.8,23.87,21.91,0,111,13.19,23.63,290.9
"2009-09-05 00:21:00",1212811,0.869,330.2,1.492,0.023,20.55,109.1864,22.8,23.87,21.98,0,111,13.19,23.64,292.2
"2009-09-05 00:21:30",1212812,0.931,334.9,1.723,0.03,20.54,109.1828,22.8,23.85,22,0,111,13.19,23.63,296.9
"2009-09-05 00:22:00",1212813,0.922,332.5,1.715,0.041,20.55,109.1804,22.79,23.85,22.07,0,111,13.19,23.62,294.5
"2009-09-05 00:22:30",1212814,0.873,330.6,1.627,0.059,20.54,109.1829,22.8,23.84,22.07,0,111,13.19,23.63,292.6
"2009-09-05 00:23:00",1212815,0.794,329.9,2.113,0.043,20.57,109.1847,22.8,23.84,22.14,0,111,13.19,23.63,291.9
"2009-09-05 00:23:30",1212816,0.789,331.8,1.765,0.057,20.56,109.1838,22.8,23.84,22.19,0,111,13.18,23.63,293.8
"2009-09-05 00:24:00",1212817,0.784,339.7,2.321,0.058,20.57,109.1835,22.8,23.83,22.22,0,111,13.18,23.63,301.7
"2009-09-05 00:24:30",1212818,0.699,336.4,1.049,0.046,20.61,109.1826,22.79,23.82,22.26,0,111,13.18,23.63,298.4
"2009-09-05 00:25:00",1212819,0.718,337.1,1.606,0.047,20.58,109.1875,22.81,23.82,22.31,0,111,13.18,23.64,299.1
"2009-09-05 00:25:30",1212820,0.747,336.6,1.655,0.033,20.6,109.1893,22.81,23.84,22.33,0,111,13.18,23.64,298.6
"2009-09-05 00:26:00",1212821,0.69,333.9,2.624,0.057,20.6,109.19,22.81,23.82,22.32,0,111,13.18,23.65,295.9
"2009-09-05 00:26:30",1212822,0.639,339.3,1.923,0.037,20.58,109.1915,22.82,23.82,22.33,0,111,13.18,23.65,301.3
"2009-09-05 00:27:00",1212823,0.692,336.4,3.202,0.084,20.57,109.1952,22.83,23.82,22.35,0,111,13.18,23.66,298.4
"2009-09-05 00:27:30",1212824,0.788,337.1,3.292,0.103,20.59,109.1951,22.83,23.81,22.34,0,111,13.18,23.66,299.1
"2009-09-05 00:28:00",1212825,0.765,336.5,4.733,0.056,20.59,109.1909,22.82,23.8,22.25,0,111,13.18,23.65,298.5
"2009-09-05 00:28:30",1212826,0.666,340.7,4.436,0.065,20.57,109.1836,22.8,23.8,22.12,0,111,13.18,23.63,302.7
"2009-09-05 00:29:00",1212827,0.729,331.2,3.533,0.053,20.57,109.1783,22.78,23.79,22.09,0,111,13.19,23.62,293.2
"2009-09-05 00:29:30",1212828,0.794,331.5,2.202,0.053,20.57,109.1748,22.77,23.79,21.91,0,111,13.19,23.61,293.5
"2009-09-05 00:30:00",1212829,0.782,332.5,4.041,0.072,20.58,109.1722,22.77,23.79,21.87,0,111,13.19,23.60,294.5
"2009-09-05 00:30:30",1212830,0.846,328.3,2.211,0.036,20.61,109.1686,22.76,23.78,21.88,0,111,13.19,23.59,290.3
"2009-09-05 00:31:00",1212831,0.736,331.3,4.164,0.052,20.6,109.1673,22.76,23.77,21.85,0,111,13.19,23.59,293.3
"2009-09-05 00:31:30",1212832,0.723,334.1,1.254,0.033,20.59,109.1673,22.76,23.77,22.14,0,111,13.19,23.59,296.1
"2009-09-05 00:32:00",1212833,0.753,333.6,1.558,0.042,20.59,109.1679,22.76,23.76,22.33,0,111,13.19,23.59,295.6
"2009-09-05 00:32:30",1212834,0.787,335.2,2.169,0.036,20.63,109.1673,22.76,23.76,22.36,0,111,13.19,23.59,297.2
"2009-09-05 00:33:00",1212835,0.662,335.9,1.699,0.025,20.63,109.1679,22.76,23.77,22.34,0,111,13.19,23.59,297.9
"2009-09-05 00:33:30",1212836,0.594,338.2,2.973,0.034,20.65,109.1685,22.76,23.75,22.37,0,111,13.19,23.59,300.2
"2009-09-05 00:34:00",1212837,0.565,339.3,3.541,0.032,20.6,109.1682,22.76,23.75,22.07,0,111,13.19,23.59,301.3
"2009-09-05 00:34:30",1212838,0.555,341.1,3.23,0.041,20.6,109.1691,22.76,23.74,22.03,0,111,13.19,23.59,303.1
"2009-09-05 00:35:00",1212839,0.6,342.9,2.283,0.043,20.62,109.1661,22.75,23.73,21.9,0,111,13.19,23.58,304.9
"2009-09-05 00:35:30",1212840,0.557,347.8,3.337,0.045,20.68,109.1638,22.75,23.73,21.77,0,111,13.19,23.58,309.8
"2009-09-05 00:36:00",1212841,0.597,348.8,2.224,0.046,20.66,109.1604,22.74,23.71,21.81,0,111,13.19,23.57,310.8
"2009-09-05 00:36:30",1212842,0.6,346.6,2.609,0.047,20.66,109.1542,22.72,23.71,21.73,0,111,13.19,23.55,308.6
"2009-09-05 00:37:00",1212843,0.603,348.9,3.202,0.083,20.66,109.1419,22.69,23.71,21.81,0,111,13.19,23.52,310.9
"2009-09-05 00:37:30",1212844,0.542,350.5,3.509,0.057,20.69,109.1403,22.69,23.7,21.93,0,111,13.19,23.52,312.5
"2009-09-05 00:38:00",1212845,0.434,355.2,3.59,0.077,20.73,109.1403,22.69,23.71,22.17,0,111,13.19,23.52,317.2
"2009-09-05 00:38:30",1212846,0.544,355,3.097,0.072,20.7,109.1381,22.68,23.7,22.18,0,111,13.19,23.51,317.0
"2009-09-05 00:39:00",1212847,0.483,357,4.546,0.065,20.71,109.1406,22.69,23.7,22.11,0,111,13.19,23.52,319.0
"2009-09-05 00:39:30",1212848,0.446,358.2,3.887,0.066,20.73,109.1424,22.69,23.68,22.08,0,111,13.19,23.52,320.2
"2009-09-05 00:40:00",1212849,0.6,354.4,3.789,0.142,20.74,109.1418,22.69,23.68,21.96,0,111,13.19,23.52,316.4
"2009-09-05 00:40:30",1212850,0.709,351.8,1.906,0.037,20.71,109.1329,22.67,23.67,21.89,0,111,13.19,23.50,313.8
"2009-09-05 00:41:00",1212851,0.638,354,1.86,0.052,20.71,109.1202,22.63,23.67,21.86,0,111,13.19,23.47,316.0
"2009-09-05 00:41:30",1212852,0.587,354.1,4.06,0.1,20.72,109.1118,22.61,23.64,21.67,0,111,13.19,23.44,316.1
"2009-09-05 00:42:00",1212853,0.602,350.6,3.935,0.074,20.75,109.1099,22.61,23.64,21.56,0,111,13.19,23.44,312.6
"2009-09-05 00:42:30",1212854,0.619,345.6,2.129,0.043,20.74,109.1093,22.61,23.62,21.46,0,111,13.19,23.44,307.6
"2009-09-05 00:43:00",1212855,0.633,348.5,4.924,0.053,20.75,109.1093,22.61,23.63,21.62,0,111,13.19,23.44,310.5
"2009-09-05 00:43:30",1212856,0.568,348.4,3.963,0.035,20.77,109.1093,22.61,23.62,21.56,0,111,13.19,23.44,310.4
"2009-09-05 00:44:00",1212857,0.539,350,1.487,0.034,20.75,109.1093,22.61,23.62,21.52,0,111,13.19,23.44,312.0
"2009-09-05 00:44:30",1212858,0.467,353.4,3.498,0.092,20.81,109.1073,22.6,23.59,21.38,0,111,13.19,23.43,315.4
"2009-09-05 00:45:00",1212859,0.447,346.6,7.209,0.059,20.76,109.1017,22.59,23.6,21.46,0,111,13.19,23.42,308.6
"2009-09-05 00:45:30",1212860,0.488,343.4,2.659,0.034,20.79,109.0981,22.58,23.59,21.25,0,111,13.19,23.41,305.4
"2009-09-05 00:46:00",1212861,0.521,348.6,1.913,0.021,20.81,109.0874,22.55,23.58,21.16,0,111,13.19,23.38,310.6
"2009-09-05 00:46:30",1212862,0.523,350.1,1.175,0.033,20.82,109.082,22.54,23.57,21.01,0,111,13.19,23.37,312.1
"2009-09-05 00:47:00",1212863,0.53,349.3,1.369,0.023,20.87,109.0759,22.52,23.57,20.74,0,111,13.19,23.35,311.3
"2009-09-05 00:47:30",1212864,0.499,349,2.805,0.049,20.83,109.0756,22.52,23.59,20.75,0,111,13.19,23.35,311.0
"2009-09-05 00:48:00",1212865,0.51,349.4,3.216,0.06,20.83,109.0756,22.52,23.55,20.75,0,111,13.19,23.35,311.4
"2009-09-05 00:48:30",1212866,0.547,348.5,1.266,0.023,20.83,109.0756,22.52,23.54,20.72,0,111,13.19,23.35,310.5
"2009-09-05 00:49:00",1212867,0.489,349.6,2.374,0.046,20.87,109.0756,22.52,23.54,20.69,0,111,13.19,23.35,311.6
"2009-09-05 00:49:30",1212868,0.311,353.7,6.429,0.09,20.85,109.0756,22.52,23.52,20.7,0,111,13.19,23.35,315.7
"2009-09-05 00:50:00",1212869,0.256,359.3,13.27,0.118,20.81,109.0733,22.51,23.51,20.71,0,111,13.2,23.34,321.3
"2009-09-05 00:50:30",1212870,0.339,354.5,5.269,0.075,20.83,109.0691,22.5,23.5,20.72,0,111,13.19,23.33,316.5
"2009-09-05 00:51:00",1212871,0.31,355.1,7.385,0.087,20.8,109.0542,22.47,23.51,20.74,0,111,13.2,23.30,317.1
"2009-09-05 00:51:30",1212872,0.192,357.4,9.48,0.081,20.79,109.0489,22.45,23.49,20.73,0,111,13.2,23.28,319.4
"2009-09-05 00:52:00",1212873,0.173,359.6,10.74,0.098,20.77,109.0444,22.44,23.48,20.76,0,111,13.2,23.27,321.6
"2009-09-05 00:52:30",1212874,0.111,3.106,13.58,0.105,20.81,109.0418,22.43,23.49,20.85,0,110.9,13.2,23.26,325.1
"2009-09-05 00:53:00",1212875,0.046,3.238,13.69,0.061,20.79,109.0418,22.43,23.48,20.97,0,111,13.2,23.26,325.2
"2009-09-05 00:53:30",1212876,0.037,2.587,9.69,0.053,20.76,109.0418,22.43,23.47,21.15,0,111,13.2,23.26,324.6
"2009-09-05 00:54:00",1212877,-0.041,3.416,11.08,0.047,20.81,109.0418,22.43,23.47,21.32,0,110.9,13.2,23.26,325.4
"2009-09-05 00:54:30",1212878,0.051,1.122,17.64,0.11,20.79,109.0418,22.43,23.46,21.46,0,111,13.2,23.26,323.1
"2009-09-05 00:55:00",1212879,0.029,0.461,20.62,0.07,20.83,109.0415,22.43,23.45,21.58,0,110.9,13.2,23.26,322.5
"2009-09-05 00:55:30",1212880,-0.019,359.7,12.14,0.054,20.91,109.0387,22.43,23.43,21.64,0,111,13.2,23.26,321.7
"2009-09-05 00:56:00",1212881,-0.063,0.564,20.16,0.034,20.89,109.0314,22.41,23.42,21.73,0,110.9,13.2,23.24,322.6
"2009-09-05 00:56:30",1212882,-0.009,6.862,11.46,0.059,20.82,109.0202,22.38,23.43,21.79,0,111,13.2,23.21,328.9
"2009-09-05 00:57:00",1212883,0.052,10.22,7.246,0.048,20.71,109.0154,22.37,23.42,21.82,0,110.9,13.2,23.20,332.2
"2009-09-05 00:57:30",1212884,-0.038,2.334,18.23,0.052,20.75,109.0098,22.35,23.41,21.88,0,110.9,13.19,23.18,324.3
"2009-09-05 00:58:00",1212885,0.023,6.475,12.15,0.064,20.76,109.0081,22.35,23.4,21.9,0,110.9,13.19,23.18,328.5
"2009-09-05 00:58:30",1212886,-0.03,6.164,12.16,0.036,20.76,109.0081,22.35,23.38,21.9,0,110.9,13.19,23.18,328.2
"2009-09-05 00:59:00",1212887,-0.002,3.036,13.82,0.056,20.76,109.0081,22.35,23.37,21.91,0,110.9,13.19,23.18,325.0
"2009-09-05 00:59:30",1212888,0.03,359.4,12.7,0.112,20.82,109.0087,22.35,23.37,21.91,0,110.9,13.19,23.18,321.4
"2009-09-05 01:00:00",1212889,0.125,358.9,13.29,0.104,20.73,109.009,22.35,23.35,21.87,0,110.9,13.19,23.18,320.9
"2009-09-05 01:00:30",1212890,0.121,355.7,14.37,0.104,20.79,109.0031,22.33,23.34,21.84,0,110.9,13.19,23.16,317.7
"2009-09-05 01:01:00",1212891,0.13,1.546,16.44,0.129,20.74,108.9893,22.3,23.35,21.86,0,110.9,13.19,23.13,323.5
"2009-09-05 01:01:30",1212892,0.04,6.234,15.73,0.089,20.81,108.9789,22.27,23.33,21.87,0,110.9,13.19,23.10,328.2
"2009-09-05 01:02:00",1212893,0.017,11.4,17.15,0.11,20.77,108.975,22.26,23.32,21.78,0,110.9,13.19,23.09,333.4
"2009-09-05 01:02:30",1212894,0.002,2.466,21.61,0.073,20.72,108.9768,22.27,23.32,21.72,0,110.9,13.2,23.10,324.5
"2009-09-05 01:03:00",1212895,-0.019,9.57,19.8,0.061,20.71,108.9768,22.27,23.3,21.64,0,110.9,13.2,23.10,331.6
"2009-09-05 01:03:30",1212896,0.004,359.9,16.11,0.089,20.65,108.9784,22.27,23.29,21.68,0,110.9,13.2,23.10,321.9
"2009-09-05 01:04:00",1212897,0.08,0.853,12.67,0.098,20.62,108.9665,22.24,23.27,21.62,0,110.9,13.2,23.07,322.9
"2009-09-05 01:04:30",1212898,0.078,8.79,10.04,0.084,20.66,108.9573,22.22,23.27,21.59,0,110.9,13.2,23.05,330.8
"2009-09-05 01:05:00",1212899,0.101,5.422,8.01,0.056,20.64,108.95,22.2,23.26,21.55,0,110.9,13.2,23.03,327.4
"2009-09-05 01:05:30",1212900,0.145,2.176,9.05,0.075,20.63,108.951,22.2,23.25,21.5,0,110.9,13.2,23.03,324.2
"2009-09-05 01:06:00",1212901,0.195,6.478,11.37,0.083,20.68,108.9489,22.19,23.23,21.45,0,110.9,13.2,23.02,328.5
"2009-09-05 01:06:30",1212902,0.297,358.6,8.39,0.103,20.72,108.9483,22.19,23.21,21.43,0,110.9,13.2,23.02,320.6
"2009-09-05 01:07:00",1212903,0.337,9.48,10.2,0.061,20.79,108.9381,22.17,23.2,21.39,0,110.9,13.2,23.00,331.5
"2009-09-05 01:07:30",1212904,0.379,12.07,6.59,0.116,20.77,108.9226,22.13,23.18,21.45,0,110.9,13.2,22.96,334.1
"2009-09-05 01:08:00",1212905,0.447,13.87,4.88,0.082,20.78,108.9185,22.12,23.17,21.44,0,110.9,13.2,22.95,335.9
"2009-09-05 01:08:30",1212906,0.381,4.163,5.572,0.094,20.78,108.9197,22.12,23.16,21.44,0,110.9,13.2,22.95,326.2
"2009-09-05 01:09:00",1212907,0.421,5.723,6.556,0.12,20.78,108.9189,22.12,23.15,21.42,0,110.9,13.2,22.95,327.7
"2009-09-05 01:09:30",1212908,0.506,14.43,6.994,0.085,20.74,108.9117,22.1,23.12,21.44,0,110.9,13.2,22.93,336.4
"2009-09-05 01:10:00",1212909,0.479,19.53,5.552,0.091,20.72,108.8973,22.06,23.11,21.46,0,110.9,13.2,22.89,341.5
"2009-09-05 01:10:30",1212910,0.466,16.28,3.828,0.069,20.72,108.8927,22.05,23.11,21.45,0,110.9,13.2,22.88,338.3
"2009-09-05 01:11:00",1212911,0.542,16.85,2.066,0.031,20.71,108.8976,22.06,23.07,21.48,0,110.9,13.2,22.89,338.9
"2009-09-05 01:11:30",1212912,0.53,20.15,2.48,0.075,20.7,108.8965,22.06,23.08,21.5,0,110.9,13.2,22.89,342.1
"2009-09-05 01:12:00",1212913,0.568,27.66,2.483,0.031,20.69,108.8864,22.03,23.06,21.51,0,110.9,13.2,22.86,349.7
"2009-09-05 01:12:30",1212914,0.559,31.01,2.319,0.038,20.71,108.8687,21.99,23.04,21.53,0,110.9,13.2,22.82,353.0
"2009-09-05 01:13:00",1212915,0.725,36.36,2.204,0.026,20.77,108.866,21.98,23.03,21.61,0,110.9,13.2,22.81,358.4
"2009-09-05 01:13:30",1212916,0.729,40.4,1.018,0.04,20.76,108.8666,21.98,23.03,21.71,0,110.9,13.2,22.81,2.4
"2009-09-05 01:14:00",1212917,0.735,41.75,0.623,0,20.78,108.8688,21.99,23,21.79,0,110.9,13.2,22.82,3.8
"2009-09-05 01:14:30",1212918,0.743,43.61,0.451,0.02,20.78,108.8603,21.97,22.98,21.84,0,110.9,13.2,22.80,5.6
"2009-09-05 01:15:00",1212919,0.801,42.87,1.304,0.035,20.8,108.8375,21.91,22.96,21.93,0,110.9,13.2,22.74,4.9
"2009-09-05 01:15:30",1212920,0.811,43.4,0.548,0.022,20.83,108.8369,21.91,22.96,21.93,0,110.9,13.2,22.74,5.4
"2009-09-05 01:16:00",1212921,0.791,45.04,1.275,0.056,20.89,108.8375,21.91,22.94,21.94,0,110.9,13.2,22.74,7.0
"2009-09-05 01:16:30",1212922,0.961,45.86,2.007,0.075,20.86,108.8406,21.92,22.94,21.93,0,110.9,13.2,22.75,7.9
"2009-09-05 01:17:00",1212923,1.143,47.36,1.226,0.05,20.82,108.8301,21.89,22.91,21.75,0,110.9,13.2,22.72,9.4
"2009-09-05 01:17:30",1212924,1.149,49.52,0.894,0.03,20.91,108.8136,21.85,22.91,21.56,0,110.9,13.2,22.68,11.5
"2009-09-05 01:18:00",1212925,1.171,47.79,1.049,0.026,20.83,108.8086,21.83,22.86,21.4,0,110.9,13.2,22.66,9.8
"2009-09-05 01:18:30",1212926,1.214,46.99,1.168,0.023,20.78,108.8077,21.83,22.85,21.33,0,110.9,13.2,22.66,9.0
"2009-09-05 01:19:00",1212927,1.164,45.19,0.909,0.032,20.74,108.8086,21.83,22.86,21.55,0,110.9,13.2,22.66,7.2
"2009-09-05 01:19:30",1212928,1.216,46.64,1.151,0.049,20.77,108.808,21.83,22.83,21.62,0,110.9,13.2,22.66,8.6
"2009-09-05 01:20:00",1212929,1.135,46.25,1.156,0.035,20.77,108.8036,21.82,22.82,21.63,0,110.9,13.2,22.65,8.2
"2009-09-05 01:20:30",1212930,1.156,45.46,1.638,0.051,20.76,108.7861,21.78,22.81,21.61,0,110.9,13.21,22.60,7.5
"2009-09-05 01:21:00",1212931,1.116,45.19,1.025,0.037,20.77,108.7816,21.77,22.8,21.78,0,110.9,13.21,22.59,7.2
"2009-09-05 01:21:30",1212932,1.143,46.08,1.091,0.039,20.79,108.7757,21.75,22.8,21.79,0,110.9,13.21,22.58,8.1
"2009-09-05 01:22:00",1212933,1.163,45.09,0.497,0.017,20.74,108.7749,21.75,22.78,21.54,0,110.9,13.21,22.58,7.1
"2009-09-05 01:22:30",1212934,1.208,46.09,0.604,0.025,20.8,108.7749,21.75,22.78,21.41,0,110.9,13.21,22.58,8.1
"2009-09-05 01:23:00",1212935,1.179,46.6,0.586,0.031,20.78,108.7749,21.75,22.76,21.4,0,110.9,13.21,22.58,8.6
"2009-09-05 01:23:30",1212936,1.137,48.2,1.39,0.035,20.88,108.7749,21.75,22.76,21.49,0,110.9,13.21,22.58,10.2
"2009-09-05 01:24:00",1212937,1.158,47.83,0.822,0.03,20.88,108.7749,21.75,22.75,21.84,0,110.9,13.21,22.58,9.8
"2009-09-05 01:24:30",1212938,1.187,48.71,0.954,0.04,20.88,108.7715,21.74,22.74,22.08,0,110.9,13.21,22.57,10.7
"2009-09-05 01:25:00",1212939,1.197,53.39,1.839,0.029,20.94,108.7667,21.73,22.74,22.57,0,110.9,13.21,22.55,15.4
"2009-09-05 01:25:30",1212940,1.216,56.07,0.584,0,20.93,108.7586,21.71,22.74,23.22,0,110.9,13.21,22.53,18.1
"2009-09-05 01:26:00",1212941,1.173,57.3,0.871,0.032,20.92,108.7532,21.69,22.73,23.56,0,110.9,13.21,22.52,19.3
"2009-09-05 01:26:30",1212942,1.178,59.91,1.198,0.028,20.94,108.7459,21.67,22.72,23.67,0,110.9,13.21,22.50,21.9
"2009-09-05 01:27:00",1212943,1.214,60,1.231,0.023,20.93,108.7423,21.66,22.73,23.97,0,110.9,13.21,22.49,22.0
"2009-09-05 01:27:30",1212944,1.234,60.96,1.212,0.036,20.94,108.7411,21.66,22.71,24.35,0,110.9,13.21,22.49,23.0
"2009-09-05 01:28:00",1212945,1.211,64.43,1.63,0.019,20.98,108.7411,21.66,22.69,24.86,0,110.9,13.21,22.49,26.4
"2009-09-05 01:28:30",1212946,1.223,69.06,1.104,0.038,20.98,108.7411,21.66,22.7,25.31,0,110.9,13.21,22.49,31.1
"2009-09-05 01:29:00",1212947,1.27,67.34,2.74,0.057,20.98,108.7411,21.66,22.7,25.67,0,110.9,13.21,22.49,29.3
"2009-09-05 01:29:30",1212948,1.34,66.59,1.371,0.032,20.96,108.7411,21.66,22.69,25.61,0,110.9,13.21,22.49,28.6
"2009-09-05 01:30:00",1212949,1.386,69.05,1.286,0.043,20.96,108.7411,21.66,22.69,26.03,0,110.9,13.21,22.49,31.1
"2009-09-05 01:30:30",1212950,1.661,72.39,3.167,0.093,21.02,108.7411,21.66,22.69,26.45,0,110.9,13.21,22.49,34.4
"2009-09-05 01:31:00",1212951,1.823,74.22,1.918,0.142,20.97,108.7411,21.66,22.68,26.83,0,110.9,13.21,22.49,36.2
"2009-09-05 01:31:30",1212952,1.852,73.03,2.178,0.096,20.96,108.7411,21.66,22.68,26.97,0,110.9,13.21,22.49,35.0
"2009-09-05 01:32:00",1212953,1.747,70.59,1.322,0.053,21.01,108.7411,21.66,22.7,26.83,0,110.9,13.21,22.49,32.6
"2009-09-05 01:32:30",1212954,1.679,69.97,1.338,0.098,20.98,108.7411,21.66,22.69,26.58,0,110.9,13.21,22.49,32.0
"2009-09-05 01:33:00",1212955,1.706,75.23,3.899,0.072,21.02,108.7411,21.66,22.69,27.09,0,110.9,13.21,22.49,37.2
"2009-09-05 01:33:30",1212956,1.621,77.76,2.519,0.052,21.03,108.7411,21.66,22.69,27.21,0,110.9,13.21,22.49,39.8
"2009-09-05 01:34:00",1212957,1.681,74.18,1.68,0.042,21,108.7411,21.66,22.68,27.1,0,110.9,13.21,22.49,36.2
"2009-09-05 01:34:30",1212958,1.831,73.82,1.924,0.086,21,108.7411,21.66,22.69,27.21,0,110.9,13.21,22.49,35.8
"2009-09-05 01:35:00",1212959,1.852,75.21,1.363,0.047,20.96,108.7411,21.66,22.68,27.34,0,110.9,13.21,22.49,37.2
"2009-09-05 01:35:30",1212960,1.973,74.79,1.563,0.079,20.95,108.7411,21.66,22.68,27.33,0,110.9,13.21,22.49,36.8
"2009-09-05 01:36:00",1212961,2.15,77.07,1.223,0.039,21.02,108.7411,21.66,22.69,27.26,0,110.9,13.21,22.49,39.1
"2009-09-05 01:36:30",1212962,1.966,77.3,1.227,0.076,20.96,108.7411,21.66,22.7,27.31,0,110.9,13.21,22.49,39.3
"2009-09-05 01:37:00",1212963,1.896,79.19,1.081,0.055,20.97,108.7411,21.66,22.71,27.31,0,110.9,13.21,22.49,41.2
"2009-09-05 01:37:30",1212964,1.829,75.5,3.241,0.046,20.92,108.7411,21.66,22.69,26.84,0,110.8,13.21,22.49,37.5
"2009-09-05 01:38:00",1212965,1.893,72.05,1.571,0.04,20.91,108.7411,21.66,22.71,25.66,0,110.8,13.21,22.49,34.1
"2009-09-05 01:38:30",1212966,1.829,69.15,1.934,0.075,20.92,108.7411,21.66,22.7,25.17,0,110.8,13.21,22.49,31.2
"2009-09-05 01:39:00",1212967,1.886,66.98,3.533,0.057,20.92,108.7499,21.68,22.71,24.96,0,110.8,13.21,22.51,29.0
"2009-09-05 01:39:30",1212968,1.926,62.49,2.045,0.222,20.78,108.7777,21.76,22.71,23.24,0,110.8,13.21,22.58,24.5
"2009-09-05 01:40:00",1212969,2.785,66.59,5.382,0.157,20.38,108.8053,21.83,22.74,30.79,0,110.8,13.21,22.65,28.6
"2009-09-05 01:40:30",1212970,3.381,64.17,3.666,0.38,20.46,108.8076,21.83,22.77,32.15,0,110.8,13.21,22.66,26.2
"2009-09-05 01:41:00",1212971,4.343,72.13,3.126,0.251,20.5,108.8085,21.83,22.79,32.21,0,110.8,13.22,22.66,34.1
"2009-09-05 01:41:30",1212972,4.286,74.15,4.254,0.236,20.53,108.8071,21.83,22.81,32.41,0,110.8,13.22,22.66,36.2
"2009-09-05 01:42:00",1212973,4.181,72.15,4.526,0.186,20.45,108.8003,21.81,22.8,33.13,0,110.8,13.22,22.64,34.2
"2009-09-05 01:42:30",1212974,3.967,75.12,8.38,0.189,20.47,108.7961,21.8,22.82,33.32,0,110.8,13.22,22.63,37.1
"2009-09-05 01:43:00",1212975,4.076,89.7,2.197,0.325,20.51,108.7879,21.78,22.81,34.3,0,110.8,13.22,22.61,51.7
"2009-09-05 01:43:30",1212976,3.162,83.2,3.147,0.307,20.46,108.7823,21.77,22.81,34.66,0,110.8,13.22,22.60,45.2
"2009-09-05 01:44:00",1212977,3.033,84.1,3.471,0.26,20.48,108.7853,21.77,22.8,35.02,0,110.8,13.22,22.60,46.1
"2009-09-05 01:44:30",1212978,3.556,94.2,5.605,0.195,20.58,108.7853,21.77,22.8,34.86,0,110.8,13.22,22.60,56.2
"2009-09-05 01:45:00",1212979,3.818,92.9,2.823,0.188,20.67,108.7862,21.78,22.81,35.48,0,110.8,13.22,22.61,54.9
"2009-09-05 01:45:30",1212980,4.414,83,5.601,0.537,20.85,108.7893,21.79,22.8,30.41,0,110.8,13.22,22.61,45.0
"2009-09-05 01:46:00",1212981,4.548,70.23,5.256,0.175,20.82,108.7879,21.78,22.79,28.87,0,110.8,13.22,22.61,32.2
"2009-09-05 01:46:30",1212982,3.779,70.18,4.029,0.418,20.85,108.7857,21.78,22.77,27.96,0,110.8,13.22,22.60,32.2
"2009-09-05 01:47:00",1212983,2.865,72.53,1.676,0.156,20.94,108.78,21.76,22.76,24.14,0,110.8,13.22,22.59,34.5
"2009-09-05 01:47:30",1212984,2.816,64.61,4.994,0.211,20.74,108.7735,21.74,22.74,25.14,0,110.8,13.22,22.57,26.6
"2009-09-05 01:48:00",1212985,3.397,73.73,3.163,0.168,20.65,108.7702,21.74,22.75,29.85,0,110.8,13.22,22.56,35.7